SCP
0 0 0 0 0 0 0 0 0 0 0 0 0 0 0 0 0 0 0 0 0 0 0 0 0 0 0 0 0 0 0 0 0 0 0 0 0 0 0 0 0 0 0 0 0 0 0 0 0
0 0 0 0 0 0 0 0 0 0 0 0 0 0 0 0 0 0 0 0 0 0 0 0 0 0 0 0 0 0 0 0 0 0 0 0 0 0 0 0 0 0 0 0 0 0 0 0 0
0 0 0 0 0 0 0 0 0 0 0 0 0 0 0 0 0 0 0 0 0 0 0 0 0 0 0 0 0 0 0 0 0 0 0 0 0 0 0 0 0 0 0 0 0 0 0 0 0
0 0 0 0 0 0 0 0 0 0 0 0 0 0 0 0 0 0 0 0 0 0 0 0 0 0 0 0 0 0 0 0 0 0 0 0 0 0 0 0 0 0 0 0 0 0 0 0 0
0 0 0 0 0 0 0 0 0 0 0 0 0 0 0 0 0 0 0 0 0 0 0 0 0 0 0 0 0 0 0 0 0 0 0 0 0 0 0 0 0 0 0 0 0 0 0 0 0
0 0 0 0 0 0 0 0 0 0 0 0 0 0 0 0 0 0 0 0 0 0 0 0 0 0 0 0 0 0 0 0 0 0 0 0 0 0 0 0 0 0 0 0 0 0 0 0 0
0 0 0 0 0 0 0 0 0 0 0 0 0 0 0 0 0 0 0 0 0 0 0 0 0 0 0 0 0 0 0 0 0 0 0 0 0 0 0 0 0 0 0 0 0 0 0 0 0
0 0 0 0 0 0 0 0 0 0 0 0 0 0 0 0 0 0 0 0 0 0 0 0 0 0 0 0 0 0 0 0 0 0 0 0 0 0 0 0 0 0 0 0 0 0 0 0 0
0 0 0 0 0 0 0 0 0 0 0 0 0 0 0 0 0 0 0 0 0 0 0 0 0 0 0 0 0 0 0 0 0 0 0 0 0 0 0 0 0 0 0 0 0 0 0 0 0
0 0 0 0 0 0 0 0 0 0 0 0 0 0 0 0 0 0 0 0 0 0 0 0 0 0 0 0 0 0 0 0 0 0 0 0 0 0 0 0 0 0 0 0 0 0 0 0 0
0 0 0 0 0 0 0 0 0 0 0 0 0 0 0 0 0 0 0 0 0 0 0 0 0 0 0 0 0 0 0 0 0 0 0 0 0 0 0 0 0 0 0 0 0 0 0 0 0
0 0 0 0 0 0 0 0 0 0 0 0 0 0 0 0 0 0 0 0 0 0 0 0 0 0 0 0 0 0 0 0 0 0 0 0 0 0 0 0 0 0 0 0 0 0 0 0 0
0 0 0 0 0 0 0 0 0 0 0 0 0 0 0 0 0 0 0 0 0 0 0 0 0 0 0 0 0 0 0 0 0 0 0 0 0 0 0 0 0 0 0 0 0 0 0 0 0
0 0 0 0 0 0 0 0 0 0 0 0 0 0 0 0 0 0 0 0 0 0 0 0 0 0 0 0 0 0 0 0 0 0 0 0 0 0 0 0 0 0 0 0 0 0 0 0 0
0 0 0 0 0 0 0 0 0 0 0 0 0 0 0 0 0 0 0 0 0 0 0 0 0 0 0 0 0 0 0 0 0 0 0 0 0 0 0 0 0 0 0 0 0 0 0 0 0
0 0 0 0 0 0 0 0 0 0 0 0 0 0 0 0 0 0 0 0 0 0 0 0 0 0 0 0 0 0 0 0 0 0 0 0 0 0 0 0 0 0 0 0 0 0 0 0 0
0 0 0 0 0 0 0 0 0 0 0 0 0 0 0 0 0 0 0 0 0 0 0 0 0 0 0 0 0 0 0 0 0 0 0 0 0 0 0 0 0 0 0 0 0 0 0 0 0
0 0 0 0 0 0 0 0 0 0 0 0 0 0 0 0 0 0 0 0 0 0 0 0 0 0 0 0 0 0 0 0 0 0 0 0 0 0 0 0 0 0 0 0 0 0 0 0 0
0 0 0 0 0 0 0 0 0 0 0 0 0 0 0 0 0 0 0 0 0 0 0 0 0 0 0 0 0 0 0 0 0 0 0 0 0 0 0 0 0 0 0 0 0 0 0 0 0
0 0 0 0 0 0 0 0 0 0 0 0 0 0 0 0 0 0 0 0 0 0 0 0 0 0 0 0 0 0 0 0 0 0 0 0 0 0 0 0 0 0 0 0 0 0 0 0 0
0 0 0 0 0 0 0 0 0 0 0 0 0 0 0 0 0 0 0 0 0 0 0 0 0 0 0 0 0 0 0 0 0 0 0 0 0 0 0 0 0 0 0 0 0 0 0 0 0
0 0 0 0 0 0 0 0 0 0 0 0 0 0 0 0 0 0 0 0 0 0 0 0 0 0 0 0 0 0 0 0 0 0 0 0 0 0 0 0 0 0 0 0 0 0 0 0 0
0 0 0 0 0 0 0 0 0 0 0 0 0 0 0 0 0 0 0 0 0 0 0 0 0 0 0 0 0 0 0 0 0 0 0 0 0 0 0 0 0 0 0 0 0 0 0 0 0
0 0 0 0 0 0 0 0 0 0 0 0 0 0 0 0 0 0 0 0 0 0 0 0 0 0 0 0 0 0 0 0 0 0 0 0 0 0 0 0 0 0 0 0 0 0 0 0 0
0 0 0 0 0 0 0 0 0 0 0 0 0 0 0 0 0 0 0 0 0 0 0 0 0 0 0 0 0 0 0 0 0 0 0 0 0 0 0 0 0 0 0 0 0 0 0 0 0
0 0 0 0 0 0 0 0 0 0 0 0 0 0 0 0 0 0 0 0 0 0 0 0 0 0 0 0 0 0 0 0 0 0 0 0 0 0 0 0 0 0 0 0 0 0 0 0 0
0 0 0 0 0 0 0 0 0 0 0 0 0 0 0 0 0 0 0 0 0 0 0 0 0 0 0 0 0 0 0 0 0 0 0 0 0 0 0 0 0 0 0 0 0 0 0 0 0
0 0 0 0 0 0 0 0 0 0 0 0 0 0 0 0 0 0 0 0 0 0 0 0 0 0 0 0 0 0 0 0 0 0 0 0 0 0 0 0 0 0 0 0 0 0 0 0 0
0 0 0 0 0 0 0 0 0 0 0 0 0 0 0 0 0 0 0 0 0 0 0 0 0 0 0 0 0 0 0 0 0 0 0 0 0 0 0 0 0 0 0 0 0 0 0 0 0
0 0 0 0 0 0 0 0 0 0 0 0 0 0 0 0 0 0 0 0 0 0 0 0 0 0 0 0 0 0 0 0 0 0 0 0 0 0 0 0 0 0 0 0 0 0 0 0 0
Wind_Speed
10 7 3 5 7 5 1 3 4 3 3 2 6 9 8 4 3 4 3 10 12 10 8 9 12 13 14 14 14 14 14 15 15 16 16 16 17 17 17 17 17 17 17 18 18 18 18 18 18
5 4 5 6 6 1 4 2 3 4 6 6 7 7 6 4 3 7 5 10 13 11 8 9 11 13 14 14 14 14 14 14 15 15 15 16 16 16 17 17 16 17 17 17 17 18 18 18 18
5 3 5 5 3 4 3 3 5 3 3 5 6 5 5 5 5 5 8 12 11 9 7 9 12 13 14 14 14 14 14 14 14 15 15 15 16 16 16 16 16 16 16 16 16 16 17 17 18
4 5 5 4 2 4 5 6 6 5 3 5 6 5 3 1 5 8 13 13 12 9 7 9 12 13 14 14 14 14 14 14 14 14 15 15 15 15 15 15 15 15 15 15 15 15 16 16 17
5 4 3 1 3 3 3 6 6 7 5 4 6 5 2 4 10 15 14 13 13 9 7 8 11 12 13 14 14 14 14 14 14 14 14 14 14 14 14 14 15 15 14 14 14 14 14 15 15
5 4 3 3 4 2 2 5 5 6 5 5 6 5 1 3 12 13 12 11 11 10 8 7 10 11 11 12 12 13 13 14 13 13 14 14 13 13 13 13 14 13 13 13 13 13 13 14 14
4 3 3 4 3 2 4 5 7 7 6 6 8 7 3 4 8 11 11 11 9 9 8 6 7 8 10 11 11 11 11 12 12 13 13 12 12 12 11 11 12 13 12 12 11 11 11 12 13
4 4 2 3 4 5 4 4 4 8 6 4 6 10 8 8 8 10 11 9 9 7 7 7 6 6 6 7 10 11 11 11 11 12 11 11 11 10 10 9 11 11 11 10 10 10 10 10 11
4 3 4 5 6 5 3 4 2 3 6 4 2 6 9 12 11 12 9 7 8 8 7 7 7 6 6 6 8 9 10 11 11 9 11 9 5 5 6 7 9 10 10 9 9 8 7 8 8
4 4 7 5 5 5 4 5 6 5 5 3 3 3 10 12 13 13 13 12 11 11 9 7 8 8 7 6 5 4 5 6 5 5 5 4 4 4 5 7 8 8 7 7 7 6 5 4 3
5 7 5 4 3 4 5 5 5 10 5 7 9 11 14 11 12 13 13 12 12 12 10 9 9 8 7 5 5 3 3 4 4 5 5 4 4 3 3 3 3 4 4 3 3 3 2 2 1
4 5 5 4 2 3 6 6 5 6 7 9 14 19 17 15 15 15 14 12 10 11 11 10 10 9 8 7 5 5 4 4 4 5 6 5 4 3 3 2 3 2 2 2 1 1 1 1 1
5 4 3 3 2 2 4 5 6 5 2 6 12 15 16 17 15 11 10 10 10 11 12 11 11 11 9 8 6 6 6 5 5 5 5 6 5 5 4 3 3 3 2 2 2 1 1 1 0
6 5 4 3 1 1 4 2 4 5 4 10 15 16 15 15 14 10 9 11 12 12 12 11 11 11 10 8 7 6 6 5 5 5 6 7 5 5 5 4 4 3 3 3 3 3 2 1 1
3 2 3 3 2 1 4 2 6 5 7 11 13 13 13 12 11 13 14 13 13 12 12 12 12 11 11 10 8 6 6 6 6 5 6 7 6 6 5 4 4 4 3 3 2 2 1 1 1
3 4 4 4 3 2 7 8 8 5 9 10 11 10 11 12 14 13 12 11 11 11 12 12 10 11 11 9 8 6 6 6 6 5 6 7 7 7 6 5 4 4 3 3 3 2 2 2 2
3 6 6 4 3 3 6 7 6 5 9 10 10 11 11 11 12 13 13 13 13 13 13 13 12 12 11 9 7 6 6 6 6 5 5 6 7 7 5 5 4 5 4 3 3 2 2 2 3
6 5 6 7 4 4 5 7 6 4 9 10 10 10 10 11 15 13 14 13 13 13 13 13 12 12 10 8 6 5 5 6 5 6 6 7 6 7 6 4 5 5 3 3 3 3 2 2 2
7 7 7 7 4 6 8 9 9 5 6 8 9 9 11 13 11 9 11 12 11 12 13 14 14 13 10 8 8 8 7 6 5 5 7 8 7 7 6 5 5 5 5 5 5 3 3 3 1
4 6 6 3 1 5 6 10 9 6 7 10 11 12 12 10 8 8 9 10 13 14 14 14 15 14 12 10 8 5 4 4 4 5 6 8 8 8 7 7 6 6 5 5 5 4 2 2 3
8 7 6 4 1 1 2 7 9 8 7 8 9 10 10 12 12 10 10 11 11 12 14 13 14 14 14 10 6 4 4 3 5 6 6 7 8 8 8 8 7 7 6 6 6 6 6 4 3
12 8 7 6 5 5 6 6 9 8 8 10 12 11 11 11 10 9 9 9 10 11 10 10 12 12 13 12 10 9 9 9 8 5 5 6 8 8 9 8 8 7 6 6 6 6 5 4 4
6 7 7 6 5 3 3 4 9 4 9 12 13 14 13 11 10 9 9 9 8 8 7 7 8 10 11 12 12 11 9 7 4 4 6 7 6 7 8 8 7 7 6 6 6 6 6 5 4
6 7 4 3 3 6 8 7 10 7 10 8 9 11 12 10 8 6 5 4 4 4 4 5 7 8 9 11 12 12 11 9 7 6 6 5 4 4 5 6 6 6 5 5 6 5 6 5 5
9 9 4 2 4 9 4 7 12 9 9 9 10 10 9 8 7 7 6 6 5 5 4 4 6 6 7 9 11 11 11 10 9 7 6 5 3 3 4 4 4 4 4 4 4 4 4 4 4
12 13 11 9 8 5 3 10 11 8 5 6 6 5 5 6 6 7 6 6 5 4 4 4 5 5 5 7 8 8 8 7 6 6 5 5 3 3 3 4 4 3 3 3 3 3 3 2 3
10 8 7 7 3 3 7 9 10 5 5 5 5 5 7 7 7 6 5 5 4 4 3 3 4 4 4 5 6 6 7 7 6 6 5 4 4 3 4 4 4 3 3 3 3 2 2 2 1
10 11 6 7 8 6 6 7 8 7 10 9 9 10 8 6 6 6 5 5 4 3 3 3 4 4 3 4 5 5 6 7 7 7 6 6 5 5 6 5 5 5 4 4 3 2 2 2 1
7 8 7 7 6 8 6 10 9 12 12 13 14 10 10 9 8 7 5 4 4 4 4 4 4 5 4 5 6 7 7 7 8 7 7 7 6 6 6 6 6 6 5 5 4 4 3 3 2
6 10 11 10 7 6 4 11 5 7 7 7 8 7 8 8 7 6 6 5 5 5 4 4 4 5 5 5 7 8 8 8 9 8 7 7 7 6 6 6 7 6 6 5 5 4 4 3 3
Wind_Direction
334 335 40 52 52 48 288 250 167 124 82 78 95 96 99 99 143 150 114 133 131 134 131 126 124 121 119 117 112 109 104 100 98 94 92 91 90 87 85 83 81 81 81 82 81 79 74 71 72
336 350 45 58 81 58 277 258 153 145 153 135 90 87 79 71 89 112 124 140 133 132 130 127 125 125 123 121 116 113 107 103 100 98 94 92 92 90 89 86 84 83 84 83 82 78 73 71 71
344 34 71 72 115 183 223 203 158 140 129 102 79 71 102 127 124 132 148 141 129 127 126 130 127 127 126 125 120 117 112 107 104 101 99 95 93 92 90 89 86 85 85 84 83 79 74 71 72
37 35 53 78 231 228 195 192 156 122 75 76 98 71 68 138 149 136 139 136 127 126 128 133 130 130 129 128 125 121 118 112 107 104 101 99 96 95 93 91 89 87 85 84 83 79 74 72 73
57 66 63 31 254 265 189 185 159 132 128 100 99 96 29 347 122 129 138 135 133 132 131 133 130 130 130 131 129 125 122 117 112 108 106 104 101 99 98 96 93 90 88 85 82 79 75 71 72
55 66 104 223 250 270 210 193 144 130 132 116 105 103 74 116 129 139 138 134 135 137 134 131 128 128 127 128 128 128 125 122 117 114 110 107 104 101 100 100 98 95 91 87 83 79 75 70 70
105 111 180 206 225 237 216 181 151 145 146 154 128 111 132 157 145 137 132 129 132 135 133 129 129 127 126 126 125 126 125 123 121 117 111 106 103 102 98 99 102 99 95 91 86 80 74 68 67
128 121 199 204 196 230 208 160 161 147 159 133 121 140 171 187 148 129 126 127 132 136 140 138 133 129 127 126 129 128 127 124 121 118 114 110 105 101 98 96 105 105 100 96 90 81 71 63 60
102 99 212 211 194 221 200 147 126 127 112 69 85 167 173 152 136 130 129 131 144 151 154 150 145 140 136 135 137 133 131 130 128 126 126 117 108 102 98 105 108 110 107 103 96 83 65 51 45
113 171 223 220 201 200 191 167 154 106 99 82 51 72 130 144 146 151 158 162 164 168 170 166 159 154 150 147 141 137 137 139 137 140 136 128 126 121 116 112 115 115 112 108 101 85 58 49 34
171 198 232 258 235 194 174 175 154 130 166 179 168 158 151 159 161 165 171 172 173 171 171 174 169 164 161 152 155 154 149 152 153 155 151 139 131 125 117 114 113 116 113 99 93 77 64 64 54
204 234 228 257 268 178 177 164 153 165 201 189 170 161 162 171 177 178 177 178 173 172 177 175 173 170 168 162 166 165 164 169 171 171 161 149 146 149 151 151 154 151 143 144 133 130 120 91 69
222 254 251 261 275 190 160 173 172 195 198 141 149 158 172 180 186 186 178 175 174 179 179 177 174 174 173 168 173 174 177 180 180 176 171 164 161 166 168 171 173 176 171 167 167 172 168 151 46
211 230 264 270 257 193 156 194 155 204 146 135 155 173 184 188 187 183 181 184 186 185 182 178 178 177 174 176 178 178 181 180 179 182 181 174 170 170 173 177 182 186 184 179 178 183 186 207 234
188 189 277 258 209 205 128 189 215 195 146 155 174 183 190 197 192 196 194 192 191 189 184 182 181 177 178 180 181 178 181 178 182 186 185 181 177 175 174 177 185 191 184 175 169 179 179 217 244
153 166 213 253 191 174 147 219 239 181 158 176 188 192 197 205 206 206 203 199 193 189 189 189 184 181 182 181 180 178 179 180 184 185 186 188 185 178 175 180 190 184 173 171 174 178 192 229 243
171 186 198 239 211 170 166 220 246 181 177 189 197 201 205 211 217 215 208 204 197 193 190 190 188 186 185 182 180 180 179 184 185 185 188 192 190 183 179 187 189 177 175 182 183 187 191 224 246
189 175 180 205 215 169 196 235 257 202 192 203 204 207 211 215 220 213 208 205 199 195 191 191 191 189 183 179 179 181 186 190 187 189 193 192 191 187 184 187 187 177 178 190 192 198 202 219 238
167 169 190 213 215 176 210 233 245 228 212 219 220 219 219 225 229 215 206 201 195 193 191 191 191 189 184 186 190 194 200 195 194 194 194 193 192 189 187 188 186 183 193 200 195 189 207 229 192
188 189 202 236 234 187 224 246 253 239 222 216 214 218 221 228 233 220 206 197 196 196 195 193 193 191 191 195 193 188 181 188 196 194 198 197 195 192 191 191 192 192 196 197 193 185 190 215 182
219 197 196 196 99 143 206 275 258 253 236 238 230 224 221 216 217 214 203 199 196 197 197 196 195 193 193 187 174 166 172 182 197 203 203 202 199 197 195 197 196 195 195 204 203 196 197 213 209
223 207 181 166 153 219 187 246 264 239 247 239 234 229 227 223 216 210 201 197 198 201 196 195 193 192 191 185 184 183 195 205 206 196 197 198 200 200 200 199 199 198 199 205 204 198 201 202 216
199 169 171 178 179 205 215 218 269 250 241 241 234 228 226 221 210 206 202 199 197 192 187 191 188 190 189 189 191 192 201 203 188 185 194 201 202 201 201 200 198 198 200 203 198 196 201 205 212
141 108 89 86 124 225 213 194 261 228 217 231 232 226 221 215 206 202 197 181 177 169 170 176 181 191 190 191 193 196 197 190 186 191 194 197 195 196 196 190 190 191 191 194 195 194 197 204 212
157 135 125 168 214 236 196 206 245 236 225 220 226 225 215 199 184 179 172 168 166 164 167 171 177 188 189 190 194 196 194 190 191 189 189 184 182 181 185 178 180 182 188 187 181 181 193 197 202
187 165 164 179 204 246 209 229 247 245 253 254 240 220 189 183 179 177 174 164 161 161 158 167 178 184 184 186 189 187 186 184 183 178 169 167 162 163 151 151 151 155 161 161 159 165 182 178 196
164 190 154 129 119 189 238 263 294 262 258 246 220 194 195 190 183 177 169 162 159 155 154 164 165 162 165 167 162 159 160 157 150 142 137 129 126 121 114 117 118 112 111 118 127 129 146 144 164
160 148 124 143 159 220 255 245 236 223 226 229 220 213 207 194 184 175 169 161 153 145 132 127 140 142 135 133 134 132 132 134 132 126 123 119 115 111 107 98 94 89 84 86 94 94 92 104 89
143 157 157 156 171 175 230 256 220 207 209 214 219 210 196 191 187 178 165 151 139 128 124 119 119 116 114 115 115 115 114 114 112 112 112 111 105 103 103 102 96 90 82 77 82 76 72 77 58
164 174 160 176 208 192 202 262 251 223 243 232 227 204 188 184 174 163 155 146 141 137 130 125 120 114 111 110 107 107 107 107 106 105 104 104 103 98 99 100 96 89 83 77 81 78 66 64 48